RH
4 4 4 3 3 4 9 22 21 15 16 25 29 30 28 23 17 27 31 27 27 27 23 15 11 11 11 10 7 6 7 7 9 10 14 12 14 15 16 20 18 20 26 31 36
5 5 4 4 4 4 5 14 24 19 16 17 22 27 21 16 15 26 27 27 24 27 26 25 19 12 13 11 10 6 6 11 12 13 13 10 10 12 14 17 17 17 21 32 36
5 5 5 5 4 4 4 7 16 25 19 16 18 22 17 17 20 23 27 26 22 25 26 22 23 21 16 14 13 9 10 12 11 10 8 8 10 9 11 13 14 14 17 22 34
6 6 6 6 6 6 5 5 12 20 25 21 19 18 19 17 23 23 20 21 19 21 25 25 23 24 22 21 19 17 14 14 13 11 9 8 9 9 9 10 10 11 13 16 20
6 7 7 6 7 8 7 5 9 12 22 21 20 18 19 21 20 17 15 16 17 16 18 22 24 23 23 25 22 21 20 15 12 13 12 11 10 11 8 8 8 9 11 12 15
7 7 7 8 9 9 8 7 8 10 15 19 19 16 16 20 18 17 15 14 14 17 17 16 21 21 24 21 19 22 22 20 17 14 12 13 14 14 13 11 10 9 10 11 12
7 8 8 9 10 11 10 9 9 8 10 16 17 15 17 19 14 14 12 11 11 13 12 11 13 16 20 17 17 16 14 14 16 17 16 17 18 18 17 17 17 16 14 12 13
7 8 9 10 11 11 10 10 9 10 9 12 12 15 18 13 12 12 11 10 8 8 9 7 7 10 15 15 14 13 12 13 15 12 11 11 23 22 22 22 22 23 24 27 25
7 8 9 10 12 11 11 11 10 10 9 9 10 14 12 9 11 10 9 9 7 7 6 5 6 6 6 6 7 9 8 10 14 10 8 9 20 21 21 22 23 25 27 29 32
8 7 9 9 11 11 11 12 11 10 9 9 10 12 9 11 9 9 8 8 8 7 6 6 7 6 5 6 6 6 8 8 10 9 12 14 20 19 20 20 21 22 25 26 25
8 7 7 8 11 11 13 15 13 14 12 16 13 15 14 10 10 10 8 8 8 8 9 7 7 8 7 7 8 7 7 9 9 12 16 19 21 22 22 23 22 22 23 24 22
10 9 7 8 11 12 14 23 21 24 17 13 12 13 12 11 11 11 9 10 9 9 8 8 13 11 9 7 6 6 9 11 9 9 16 19 23 25 26 26 24 25 24 25 25
12 10 9 9 11 13 20 17 14 15 18 14 14 13 12 12 14 12 10 10 10 9 10 11 12 9 9 8 9 9 10 11 10 12 17 19 22 24 26 28 31 31 29 27 29
14 12 10 10 13 15 21 14 15 15 21 16 13 14 12 13 14 13 13 13 11 12 14 13 10 10 9 10 11 11 11 11 10 12 17 12 30 25 24 26 30 32 33 32 33
16 14 12 13 19 21 22 15 16 15 53 17 14 15 13 13 17 14 11 12 14 14 13 14 12 10 11 11 13 14 12 12 14 15 14 12 16 32 23 25 28 32 33 34 37
20 17 14 21 21 22 18 17 19 32 48 17 15 13 14 15 17 17 14 14 14 13 14 14 14 13 13 12 14 10 14 13 15 17 20 15 17 32 30 27 30 29 30 32 33
25 20 16 16 30 21 20 24 33 54 17 16 16 15 15 17 18 16 16 14 15 18 17 13 14 12 14 12 12 14 16 17 19 18 24 19 19 36 28 29 29 28 30 29 29
29 24 19 18 26 24 30 32 54 20 17 16 15 16 19 20 19 17 15 17 19 18 15 14 15 12 12 16 14 17 17 25 21 18 20 19 28 31 25 26 27 25 26 26 27
35 30 30 28 20 28 38 52 41 19 17 16 19 19 19 21 20 19 18 16 14 18 17 15 20 16 15 16 17 15 20 22 26 22 18 26 30 30 22 26 27 26 27 27 28
42 36 34 35 22 36 43 50 26 20 17 17 18 18 20 20 19 20 21 21 17 18 21 18 19 14 14 17 18 23 21 18 21 24 25 23 33 31 28 31 33 33 29 27 27
45 42 47 36 27 43 52 42 26 21 17 18 19 18 17 19 17 21 23 20 15 15 16 17 17 18 17 20 17 18 18 24 25 28 23 21 33 32 29 27 28 32 29 28 28
51 48 53 44 40 42 50 35 27 24 19 20 22 20 18 18 18 21 24 19 15 14 16 18 20 16 18 19 22 25 21 23 25 29 20 28 37 32 28 24 25 25 27 29 29
55 49 55 51 58 51 43 36 32 25 23 22 23 22 21 20 22 25 23 21 17 16 20 16 21 27 24 19 18 19 20 23 25 27 26 27 37 34 27 23 23 25 26 28 30
61 58 56 56 56 49 42 37 34 26 26 24 24 25 25 23 23 25 27 21 20 18 19 16 22 27 26 26 21 22 20 19 19 25 24 20 35 31 28 28 25 23 26 30 31
65 55 50 56 58 56 45 35 33 30 28 28 27 26 26 28 26 27 27 24 22 22 18 21 26 23 22 24 23 23 23 21 21 22 25 22 21 18 19 22 24 27 30 32 32
74 57 52 56 56 54 49 43 34 32 29 29 28 26 25 27 25 28 26 24 24 25 24 24 28 24 25 21 20 20 19 22 22 22 22 20 21 20 21 24 30 32 33 32 32
75 69 64 57 64 62 49 39 40 38 33 30 30 30 28 30 28 29 29 29 27 26 26 25 26 27 26 23 25 31 22 19 20 22 21 23 22 24 27 29 31 33 33 32 34